Terminal Aerodrome Forecast
Issued by NWS Sterling, VA

Current Version | Previous Version | Graphics & Text | Print | Product List | Glossary On
Versions: 1 2 3 4 5 6 7 8 9 10 11 12 13 14 15 16 17 18 19 20 21 22 23 24 25 26 27 28
996
FTUS41 KLWX 240536
TAFDCA
TAF
KDCA 240536Z 2406/2506 VRB04KT P6SM VCSH BKN060
     FM240900 23004KT P6SM BKN060 BKN250
     FM241200 26005KT P6SM BKN050
     FM250500 33004KT P6SM SCT060=

USA.gov is the U.S. government's official web portal to all federal, state and local government web resources and services.